| time (UTC) | temp F | wind direction | speed MPH | gust MPH | rain 1hr in | rain 24hr in | rain mn in | humidity % | barometer mb |
| 20260510031522 | 52 | 185 | 0.0 | 0.0 | 0.00 | 0.10 | 0.10 | 98 | 1010.8 |
| 20260510030019 | 53 | 185 | 0.0 | 0.0 | 0.00 | 0.10 | 0.10 | 97 | 1010.5 |
| 20260510024510 | 53 | 185 | 0.0 | 0.0 | 0.00 | 0.10 | 0.10 | 97 | 1010.6 |
| 20260510023007 | 53 | 185 | 0.0 | 2.0 | 0.00 | 0.10 | 0.10 | 97 | 1010.5 |
| 20260510021508 | 54 | 185 | 0.0 | 0.0 | 0.00 | 0.10 | 0.10 | 97 | 1010.4 |
| 20260510020010 | 54 | 185 | 0.0 | 0.0 | 0.00 | 0.10 | 0.10 | 96 | 1010.2 |
| 20260510014505 | 54 | 185 | 0.0 | 0.0 | 0.00 | 0.10 | 0.10 | 95 | 1010.0 |
| 20260510013008 | 55 | 185 | 0.0 | 0.0 | 0.00 | 0.10 | 0.10 | 95 | 1010.0 |
| 20260510011604 | 56 | 185 | 0.0 | 2.0 | 0.00 | 0.10 | 0.10 | 94 | 1010.0 |
| 20260510010001 | 56 | 185 | 0.0 | 0.0 | 0.00 | 0.10 | 0.10 | 92 | 1009.8 |
| 20260510004602 | 57 | 185 | 0.0 | 0.0 | 0.00 | 0.10 | 0.10 | 92 | 1009.7 |
| 20260510004501 | 57 | 185 | 0.0 | 0.0 | 0.00 | 0.10 | 0.10 | 92 | 1009.7 |
| 20260510003120 | 57 | 185 | 0.0 | 0.0 | 0.00 | 0.10 | 0.10 | 91 | 1009.4 |
| 20260510003004 | 57 | 185 | 0.0 | 0.0 | 0.00 | 0.10 | 0.10 | 91 | 1009.4 |
| 20260510001500 | 58 | 185 | 0.0 | 0.0 | 0.00 | 0.10 | 0.10 | 89 | 1009.3 |
| 20260510000001 | 58 | 181 | 0.0 | 0.0 | 0.00 | 0.10 | 0.10 | 87 | 1009.2 |
| 20260509234615 | 59 | 165 | 0.0 | 0.0 | 0.00 | 0.10 | 0.10 | 85 | 1009.1 |
| 20260509233059 | 60 | 75 | 0.0 | 3.0 | 0.00 | 0.10 | 0.10 | 84 | 1009.0 |
| 20260509231558 | 61 | 144 | 0.0 | 3.0 | 0.00 | 0.10 | 0.10 | 82 | 1009.1 |
| 20260509224558 | 63 | 211 | 0.0 | 4.0 | 0.00 | 0.10 | 0.10 | 77 | 1009.1 |
| 20260509223101 | 63 | 162 | 0.0 | 4.0 | 0.00 | 0.10 | 0.10 | 76 | 1009.0 |
| 20260509221557 | 64 | 163 | 0.0 | 3.0 | 0.00 | 0.10 | 0.10 | 76 | 1009.0 |
| 20260509220055 | 63 | 226 | 0.0 | 2.0 | 0.00 | 0.10 | 0.10 | 77 | 1009.2 |
| 20260509214553 | 62 | 34 | 0.0 | 3.0 | 0.00 | 0.10 | 0.10 | 82 | 1009.3 |
| 20260509213058 | 62 | 39 | 1.0 | 4.0 | 0.00 | 0.10 | 0.10 | 81 | 1009.5 |
| 20260509211601 | 61 | 80 | 0.0 | 1.0 | 0.00 | 0.10 | 0.10 | 83 | 1009.2 |
| 20260509210055 | 61 | 81 | 0.0 | 2.0 | 0.00 | 0.10 | 0.10 | 84 | 1009.4 |
| 20260509204552 | 61 | 28 | 1.0 | 4.0 | 0.00 | 0.10 | 0.10 | 81 | 1009.5 |
| 20260509203046 | 62 | 343 | 1.0 | 4.0 | 0.00 | 0.10 | 0.10 | 79 | 1009.8 |
| 20260509201547 | 64 | 17 | 2.0 | 4.0 | 0.00 | 0.10 | 0.10 | 78 | 1009.8 |
| 20260509200053 | 63 | 70 | 0.0 | 3.0 | 0.00 | 0.10 | 0.10 | 80 | 1009.9 |
| 20260509194546 | 63 | 208 | 0.0 | 4.0 | 0.00 | 0.10 | 0.10 | 80 | 1009.9 |
| 20260509193043 | 61 | 185 | 0.0 | 3.0 | 0.00 | 0.10 | 0.10 | 84 | 1010.0 |
| 20260509191538 | 62 | 231 | 0.0 | 2.0 | 0.00 | 0.10 | 0.10 | 89 | 1010.1 |
| 20260509190042 | 60 | 169 | 1.0 | 4.0 | 0.01 | 0.10 | 0.10 | 92 | 1010.3 |
| 20260509184536 | 58 | 150 | 0.0 | 2.0 | 0.02 | 0.10 | 0.10 | 93 | 1010.7 |
| 20260509183057 | 57 | 243 | 0.0 | 0.0 | 0.02 | 0.10 | 0.10 | 94 | 1011.1 |
| 20260509181543 | 57 | 246 | 0.0 | 0.0 | 0.02 | 0.10 | 0.10 | 91 | 1011.2 |
| 20260509180032 | 57 | 248 | 0.0 | 0.0 | 0.01 | 0.09 | 0.09 | 89 | 1011.3 |
| 20260509174537 | 57 | 236 | 0.0 | 2.0 | 0.00 | 0.08 | 0.08 | 87 | 1011.2 |
| 20260509173033 | 57 | 284 | 0.0 | 2.0 | 0.00 | 0.08 | 0.08 | 87 | 1011.4 |
| 20260509171530 | 57 | 244 | 0.0 | 3.0 | 0.01 | 0.08 | 0.08 | 88 | 1011.5 |
| 20260509170029 | 57 | 182 | 0.0 | 4.0 | 0.04 | 0.08 | 0.08 | 89 | 1011.2 |
| 20260509164528 | 57 | 319 | 0.0 | 3.0 | 0.06 | 0.08 | 0.08 | 90 | 1011.0 |
| 20260509163031 | 56 | 306 | 0.0 | 2.0 | 0.08 | 0.08 | 0.08 | 91 | 1011.0 |
| 20260509161526 | 57 | 257 | 0.0 | 2.0 | 0.07 | 0.07 | 0.07 | 87 | 1011.4 |
| 20260509160025 | 58 | 259 | 0.0 | 2.0 | 0.04 | 0.04 | 0.04 | 85 | 1011.5 |
| 20260509154526 | 58 | 229 | 0.0 | 4.0 | 0.02 | 0.02 | 0.02 | 83 | 1011.8 |
| 20260509153024 | 59 | 209 | 2.0 | 6.0 | 0.00 | 0.00 | 0.00 | 76 | 1012.1 |
| 20260509151524 | 60 | 326 | 1.0 | 7.0 | 0.00 | 0.00 | 0.00 | 74 | 1011.9 |
| 20260509150022 | 61 | 206 | 3.0 | 8.0 | 0.00 | 0.00 | 0.00 | 71 | 1011.9 |
| 20260509144529 | 61 | 277 | 1.0 | 10.0 | 0.00 | 0.00 | 0.00 | 72 | 1011.6 |
| 20260509143020 | 61 | 173 | 0.0 | 7.0 | 0.00 | 0.00 | 0.00 | 75 | 1011.6 |
| 20260509141518 | 61 | 163 | 2.0 | 8.0 | 0.00 | 0.00 | 0.00 | 75 | 1011.4 |
| 20260509140014 | 60 | 158 | 0.0 | 2.0 | 0.00 | 0.00 | 0.00 | 80 | 1011.0 |
| 20260509134511 | 59 | 58 | 0.0 | 3.0 | 0.00 | 0.00 | 0.00 | 82 | 1011.1 |
| 20260509133013 | 58 | 26 | 1.0 | 3.0 | 0.00 | 0.00 | 0.00 | 82 | 1011.1 |
| 20260509131510 | 58 | 40 | 1.0 | 2.0 | 0.00 | 0.00 | 0.00 | 83 | 1011.1 |
| 20260509130008 | 57 | 113 | 0.0 | 2.0 | 0.00 | 0.00 | 0.00 | 82 | 1011.1 |
| 20260509124507 | 57 | 50 | 0.0 | 0.0 | 0.00 | 0.00 | 0.00 | 83 | 1011.2 |
| 20260509123004 | 56 | 158 | 0.0 | 1.0 | 0.00 | 0.00 | 0.00 | 84 | 1011.0 |
| 20260509121605 | 55 | 152 | 0.0 | 1.0 | 0.00 | 0.00 | 0.00 | 83 | 1011.1 |
| 20260509121503 | 55 | 132 | 0.0 | 1.0 | 0.00 | 0.00 | 0.00 | 83 | 1011.0 |
| 20260509120058 | 55 | 100 | 0.0 | 2.0 | 0.00 | 0.00 | 0.00 | 83 | 1011.3 |
| 20260509114533 | 55 | 144 | 0.0 | 0.0 | 0.00 | 0.00 | 0.00 | 84 | 1011.0 |
| 20260509113038 | 54 | 143 | 0.0 | 0.0 | 0.00 | 0.00 | 0.00 | 85 | 1011.1 |
| 20260509111537 | 54 | 145 | 0.0 | 2.0 | 0.00 | 0.00 | 0.00 | 86 | 1010.9 |
| 20260509110034 | 53 | 146 | 0.0 | 2.0 | 0.00 | 0.00 | 0.00 | 87 | 1010.8 |
| 20260509104540 | 52 | 147 | 0.0 | 0.0 | 0.00 | 0.00 | 0.00 | 87 | 1010.6 |
| 20260509103033 | 52 | 147 | 0.0 | 0.0 | 0.00 | 0.00 | 0.00 | 87 | 1010.5 |
| 20260509101533 | 51 | 147 | 0.0 | 1.0 | 0.00 | 0.00 | 0.00 | 86 | 1010.5 |
| 20260509100032 | 51 | 147 | 0.0 | 0.0 | 0.00 | 0.00 | 0.00 | 86 | 1010.6 |
| 20260509094533 | 51 | 147 | 0.0 | 0.0 | 0.00 | 0.00 | 0.00 | 86 | 1010.5 |
| 20260509093041 | 51 | 147 | 0.0 | 0.0 | 0.00 | 0.00 | 0.00 | 86 | 1010.7 |
| 20260509091525 | 51 | 148 | 0.0 | 0.0 | 0.00 | 0.00 | 0.00 | 85 | 1010.9 |
| 20260509090024 | 51 | 147 | 0.0 | 0.0 | 0.00 | 0.00 | 0.00 | 84 | 1010.9 |
| 20260509084532 | 50 | 147 | 0.0 | 0.0 | 0.00 | 0.00 | 0.00 | 85 | 1011.0 |
| 20260509083023 | 50 | 147 | 0.0 | 0.0 | 0.00 | 0.00 | 0.00 | 86 | 1011.1 |
| 20260509081535 | 50 | 147 | 0.0 | 0.0 | 0.00 | 0.00 | 0.00 | 86 | 1011.2 |
| 20260509080029 | 50 | 147 | 0.0 | 0.0 | 0.00 | 0.00 | 0.00 | 85 | 1011.3 |
| 20260509074517 | 50 | 147 | 0.0 | 0.0 | 0.00 | 0.00 | 0.00 | 83 | 1011.4 |
| 20260509073016 | 51 | 147 | 0.0 | 1.0 | 0.00 | 0.00 | 0.00 | 82 | 1011.5 |
| 20260509071518 | 51 | 148 | 0.0 | 2.0 | 0.00 | 0.00 | 0.00 | 82 | 1011.4 |
| 20260509070017 | 51 | 108 | 0.0 | 0.0 | 0.00 | 0.00 | 0.00 | 82 | 1011.2 |
| 20260509064513 | 51 | 108 | 0.0 | 0.0 | 0.00 | 0.00 | 0.00 | 82 | 1011.2 |
| 20260509063014 | 52 | 108 | 0.0 | 0.0 | 0.00 | 0.00 | 0.00 | 82 | 1011.2 |
| 20260509061516 | 52 | 159 | 0.0 | 2.0 | 0.00 | 0.00 | 0.00 | 83 | 1011.5 |
| 20260509060011 | 51 | 159 | 0.0 | 0.0 | 0.00 | 0.00 | 0.00 | 82 | 1011.7 |
| 20260509054505 | 52 | 159 | 0.0 | 0.0 | 0.00 | 0.00 | 0.00 | 81 | 1011.9 |
| 20260509053109 | 52 | 159 | 0.0 | 0.0 | 0.00 | 0.00 | 0.00 | 79 | 1012.1 |
| 20260509051603 | 53 | 159 | 0.0 | 0.0 | 0.00 | 0.00 | 0.00 | 77 | 1012.2 |
| 20260509050105 | 54 | 159 | 0.0 | 0.0 | 0.00 | 0.00 | 0.00 | 75 | 1012.2 |
| 20260509044557 | 55 | 159 | 0.0 | 0.0 | 0.00 | 0.00 | 0.00 | 73 | 1012.2 |
| 20260509043100 | 55 | 159 | 0.0 | 1.0 | 0.00 | 0.00 | 0.00 | 71 | 1012.0 |
| 20260509041558 | 56 | 159 | 0.0 | 1.0 | 0.00 | 0.00 | 0.00 | 71 | 1012.2 |
| 20260509040055 | 56 | 161 | 1.0 | 2.0 | 0.00 | 0.00 | 0.00 | 71 | 1012.5 |
| 20260509034551 | 56 | 17 | 2.0 | 3.0 | 0.00 | 0.00 | 0.00 | 72 | 1012.2 |
| 20260509033102 | 56 | 166 | 0.0 | 0.0 | 0.00 | 0.00 | 0.00 | 71 | 1012.7 |